Showing default

COSMOS 2255, 22690

Orbit data source: Space-Track

COSMOS 2255, 22690 is a payload satellite owned by VKS (CIS) in LEO that was launched on Thu, 24 Jun 1993 UTC via a TSIKLON-3 launch vehicle from the Plesetsk Missile And Space Complex (PKMTR). Payload-class satellites include a variety of spacecraft equipped with specific instruments for various scientific and technological missions. These include communications satellites like Starlink; space stations such as the ISS; scientific satellites like the Hubble; Earth observation satellites from companies like Planet Labs, Umbra, and HawkEye 360; GPS; miniature CubeSats for education and research; and military/defense satellites.

Loading next visibility...
Identifier
22690, 1993-038D
Orbit
LEO
Country
Flag of CISCIS
Related business
Manufacturer
NPO PM
Mission
Defense Communications
Bus & Motor
STRELA-3, Unknown motor
Mass
225 kg wet, 225 kg dry
Launch date (UTC)
1993-06-24 (33 years ago)
Launch vehicle
TSIKLON-3
Launch site
Plesetsk Missile And Space Complex (PKMTR)
Object type
Payload
Rocket body
Debris
Shape & HBR
Cyl, 0.8 m
Radar Cross Section
1.257 m², Medium (>0.1 m² and < 1m²)

Expand to show TLE details & history
Last TLE update: 6 hours ago

TLE from 6 hours ago
0 COSMOS 2255
1 22690U 93038D   26132.84951377  .00000009  00000-0 -11173-4 0  9997
2 22690  82.5838 252.1852 0006716  70.6068  50.8011 12.63327450516760
Epoch: 2026-05-12T20:23Z
TLE epoch observation values (Epoch: 2026-05-12T20:23:17.989Z)
Latitude
57.84815°
Longitude
-116.14937°
Altitude
1,415.624 km
Speed
7.16 km/s
True Right ascension
04h 01m 10s
True Declination
57° 42' 22"
Sunlit
Object was in daylight at epoch
Visualization orbit readout
Latitude
Unknown
Longitude
Unknown
Altitude
Unknown
Speed
Unknown
Apparent Right ascension
Unknown
Apparent Declination
Unknown
Sunlit
N/A
Visualization observer readout
Local Sidereal Time
10:24:33
Azimuth
Unknown
Elevation
Unknown
Doppler factor
Unknown
Orbital elements
Apogee altitude
1,411.788 km
Perigee altitude
1,401.331 km
Semi-major axis
7,784.696 km
Eccentricity
0.00067
Inclination
82.5838°
RAAN
252.1852°
Arg. of periapsis
70.6068°
True anomaly
50.86077°
Mean anomaly
50.8011°
Eccentric anomaly
50.83093°
Mean motion
3.15995 °/min
Orbital period
113.93 mins
BSTAR
-0.000011173
Loading maneuver chart data...
Computing Atmospheric mass density...
Loading historical data...
Loading historical data...
Loading historical data...
Loading historical data...
Loading historical data...
Loading historical data...
Loading historical data...

Documentation

Showing up to 5 results
|